This is the latest recevied weather packets stored in our database for station/object KA3BQE-13. If no packets are shown the sender has not sent any weather packets the latest 10 day(s).
| Time | Temp. | Humidity | Pressure | Rain* | Wind** | Luminosity | Snow |
|---|---|---|---|---|---|---|---|
| 1777423537 | 13.89° C | 86% | 1013.9 hPa | 0 mm | - | 3 W/m² | - |
| 1777423232 | 13.89° C | 83% | 1014.2 hPa | 0 mm | - | 5 W/m² | - |
| 1777422927 | 13.89° C | 82% | 1014.1 hPa | 0 mm | - | 11 W/m² | - |
| 1777422623 | 13.89° C | 84% | 1014.3 hPa | 0 mm | - | 15 W/m² | - |
| 1777422319 | 14.44° C | 83% | 1014.2 hPa | 0 mm | - | 18 W/m² | - |
| 1777422019 | 15° C | 76% | 1014.3 hPa | 0 mm | - | 22 W/m² | - |
| 1777421714 | 15° C | 76% | 1014.4 hPa | 0 mm | - | 23 W/m² | - |
| 1777421409 | 15° C | 74% | 1014.5 hPa | 0 mm | - | 29 W/m² | - |
| 1777421106 | 15° C | 80% | 1014.6 hPa | 0 mm | - | 34 W/m² | - |
| 1777420802 | 15° C | 77% | 1014.7 hPa | 0 mm | - | 48 W/m² | - |
| 1777420498 | 15° C | 76% | 1014.8 hPa | 0 mm | - | 56 W/m² | - |
| 1777420195 | 15° C | 77% | 1014.7 hPa | 0 mm | - | 67 W/m² | - |
| 1777419890 | 15° C | 76% | 1015.1 hPa | 0 mm | - | 53 W/m² | - |
| 1777419588 | 15° C | 76% | 1015.1 hPa | 0 mm | - | 59 W/m² | - |
| 1777419287 | 15° C | 79% | 1015.2 hPa | 0 mm | - | 67 W/m² | - |
| 1777418984 | 15° C | 74% | 1015.4 hPa | 0 mm | - | 75 W/m² | - |
| 1777418684 | 15° C | 75% | 1015.5 hPa | 0 mm | - | 81 W/m² | - |
| 1777418381 | 15° C | 75% | 1015.3 hPa | 0 mm | - | 62 W/m² | - |
| 1777418077 | 15° C | 75% | 1015.7 hPa | 0 mm | - | 52 W/m² | - |
| 1777417773 | 15° C | 74% | 1015.9 hPa | 0 mm | - | 76 W/m² | - |
| 1777417469 | 15.56° C | 73% | 1015.7 hPa | 0 mm | - | 112 W/m² | - |
| 1777417165 | 15.56° C | 71% | 1015.5 hPa | 0 mm | - | 124 W/m² | - |
| 1777416861 | 15.56° C | 72% | 1015.4 hPa | 0 mm | - | 111 W/m² | - |
| 1777416557 | 15° C | 73% | 1015.8 hPa | 0 mm | - | 98 W/m² | - |
| 1777416253 | 15° C | 73% | 1015.8 hPa | 0 mm | - | 101 W/m² | - |
* Rain latest hour (hover to see other rain measurements)
** Current wind speed in m/s (hover to see current wind gust speed)